| time (UTC) | temp F | wind direction | speed MPH | gust MPH | rain 1hr in | rain 24hr in | rain mn in | humidity % | barometer mb |
| 20260508120006 | 68 | 343 | 6.0 | 11.0 | 0.00 | 0.00 | 0.00 | 67 | 1004.4 |
| 20260508110005 | 67 | 346 | 4.0 | 7.0 | 0.00 | 0.00 | 0.00 | 68 | 1004.5 |
| 20260508100005 | 65 | 347 | 5.0 | 9.0 | 0.00 | 0.00 | 0.00 | 71 | 1004.6 |
| 20260508090005 | 64 | 348 | 5.0 | 9.0 | 0.00 | 0.00 | 0.00 | 74 | 1004.7 |
| 20260508080005 | 62 | 345 | 4.0 | 8.0 | 0.00 | 0.00 | 0.00 | 82 | 1004.5 |
| 20260508070006 | 61 | 297 | 2.0 | 6.0 | 0.00 | 0.00 | 0.00 | 81 | 1004.3 |
| 20260508060005 | 61 | 220 | 1.0 | 2.0 | 0.00 | 0.00 | 0.00 | 81 | 1004.1 |
| 20260508050005 | 61 | 101 | 0.0 | 2.0 | 0.00 | 0.00 | 0.00 | 80 | 1003.1 |
| 20260508040005 | 62 | 98 | 2.0 | 6.0 | 0.00 | 0.00 | 0.00 | 79 | 1002.9 |
| 20260508030006 | 61 | 358 | 1.0 | 3.0 | 0.00 | 0.00 | 0.00 | 78 | 1003.6 |
| 20260508020006 | 60 | 325 | 0.0 | 1.0 | 0.00 | 0.00 | 0.00 | 82 | 1003.5 |
| 20260508010005 | 61 | 250 | 0.0 | 2.0 | 0.00 | 0.00 | 0.00 | 78 | 1003.6 |
| 20260508000005 | 61 | 91 | 0.0 | 1.0 | 0.00 | 0.00 | 0.00 | 73 | 1004.0 |
| 20260507230005 | 62 | 195 | 1.0 | 1.0 | 0.00 | 0.00 | 0.00 | 77 | 1004.9 |
| 20260507220006 | 62 | 169 | 0.0 | 2.0 | 0.00 | 0.00 | 0.00 | 76 | 1004.9 |
| 20260507210006 | 63 | 187 | 1.0 | 2.0 | 0.00 | 0.00 | 0.00 | 76 | 1004.8 |
| 20260507200005 | 64 | 240 | 2.0 | 4.0 | 0.00 | 0.00 | 0.00 | 70 | 1004.1 |
| 20260507190006 | 67 | 220 | 2.0 | 4.0 | 0.00 | 0.00 | 0.00 | 58 | 1003.2 |
| 20260507180005 | 70 | 187 | 3.0 | 6.0 | 0.00 | 0.00 | 0.00 | 53 | 1002.9 |
| 20260507170006 | 72 | 193 | 3.0 | 7.0 | 0.00 | 0.00 | 0.00 | 52 | 1002.7 |
| 20260507160006 | 73 | 175 | 2.0 | 4.0 | 0.00 | 0.00 | 0.00 | 48 | 1002.4 |
| 20260507150006 | 74 | 202 | 2.0 | 8.0 | 0.00 | 0.00 | 0.00 | 47 | 1002.7 |
| 20260507140006 | 74 | 197 | 3.0 | 7.0 | 0.00 | 0.00 | 0.00 | 50 | 1003.1 |
| 20260507130005 | 72 | 216 | 3.0 | 7.0 | 0.00 | 0.00 | 0.00 | 53 | 1003.6 |